Powrót do katalogu

MINOTAUR 4 R/B

AktywnyVLEO
NORAD 45877·ROCKET BODY·🇺🇸 United States

Wystrzelony Jul 15, 2020 z Wallops Flight Facility

Loading…

Następne Przeloty (najbliższe 24 godziny)

TLE

ŚwieżeSource: Space-Track

Epoka: Sep 14, 2026, 05:07 UTC

1 45877U 20046E   26257.21324291  .00001195  00000-0  97206-4 0  9993
2 45877  53.9782 198.5922 0005610 225.1879 134.8667 15.07174295262342

Śledź MINOTAUR 4 R/B w czasie rzeczywistym z AllMySat

Download on the App Store